CW7731 Weather Reports


Display with metric or nautical units.
time (UTC)temp
F
wind
direction
speed
MPH
gust
MPH
rain 1hr
in
rain 24hr
in
rain mn
in
humidity
%
barometer
mb
20260507064117 60 319 0.0 0.0 0.00 0.12 0.00 84 1010.9
20260507063129 59 319 0.0 0.0 0.00 0.12 0.00 84 1010.9
20260507061146 58 319 0.0 0.0 0.00 0.13 0.00 86 1010.8
20260507060105 57 319 0.0 0.0 0.00 0.14 0.00 86 1010.8
20260507055145 57 319 0.0 0.0 0.00 0.20 0.00 87 1010.7
20260507054124 56 319 0.0 0.0 0.00 0.20 0.00 88 1010.7
20260507053129 55 319 0.0 0.0 0.00 0.20 0.00 89 1010.6
20260507052116 54 319 0.0 0.0 0.00 0.20 0.00 90 1010.6
20260507051133 54 319 0.0 0.0 0.00 0.20 0.00 90 1010.4
20260507050135 53 319 0.0 1.0 0.00 0.20 0.00 90 1010.3
20260507043132 52 316 0.0 0.0 0.00 0.20 0.00 90 1010.0
20260507042123 52 316 0.0 0.0 0.00 0.20 0.00 90 1010.0
20260507041144 52 316 0.0 0.0 0.00 0.20 0.00 90 1009.8
20260507040142 52 313 0.0 1.0 0.00 0.20 0.00 90 1009.7
20260507035103 52 315 0.0 0.0 0.00 0.20 0.00 91 1009.5
20260507034143 52 315 0.0 0.0 0.00 0.20 0.00 91 1009.6
20260507033140 52 316 0.0 0.0 0.00 0.20 0.00 91 1009.6
20260507032112 52 317 0.0 1.0 0.00 0.20 0.00 91 1009.6
20260507031137 52 317 0.0 1.0 0.00 0.20 0.00 91 1009.6
20260507030104 52 318 0.0 2.0 0.00 0.20 0.00 91 1009.5
20260507023103 52 349 0.0 1.0 0.00 0.20 0.00 91 1009.5
20260507022136 52 355 0.0 0.0 0.00 0.20 0.00 92 1009.5
20260507021135 53 355 0.0 0.0 0.00 0.20 0.00 92 1009.6
20260507020146 53 355 0.0 1.0 0.00 0.20 0.00 92 1009.7
20260507015142 53 3 0.0 0.0 0.00 0.20 0.00 92 1009.7
20260507014133 53 3 0.0 1.0 0.00 0.20 0.00 92 1009.5
20260507013136 53 3 0.0 0.0 0.00 0.20 0.00 92 1009.5
20260507004137 54 12 0.0 0.0 0.00 0.20 0.00 92 1009.5
20260507002102 55 12 0.0 0.0 0.00 0.20 0.00 91 1009.5
20260507000146 55 12 0.0 0.0 0.00 0.20 0.00 91 1009.5
20260506235137 55 22 0.0 0.0 0.00 0.20 0.00 91 1009.4
20260506234110 55 22 0.0 1.0 0.00 0.20 0.00 91 1009.5
20260506233108 55 22 0.0 0.0 0.00 0.20 0.00 91 1009.5
20260506232145 55 22 0.0 0.0 0.00 0.20 0.00 91 1009.5
20260506230105 56 22 0.0 0.0 0.00 0.20 0.00 91 1009.3
20260506225102 56 22 0.0 0.0 0.00 0.20 0.00 91 1009.4
20260506224104 57 22 0.0 0.0 0.00 0.20 0.00 91 1009.5
20260506223109 57 22 0.0 0.0 0.00 0.20 0.00 90 1009.5
20260506222147 57 22 0.0 0.0 0.00 0.20 0.00 90 1009.5
20260506221102 57 22 0.0 0.0 0.00 0.20 0.00 90 1009.6
20260506220122 57 22 0.0 0.0 0.00 0.20 0.00 90 1009.5
20260506215124 57 22 0.0 0.0 0.00 0.20 0.20 90 1009.4
20260506214137 58 22 0.0 0.0 0.00 0.20 0.20 90 1009.4
20260506213110 57 22 0.0 0.0 0.00 0.20 0.20 89 1009.5
20260506212133 58 22 0.0 0.0 0.00 0.20 0.20 89 1009.5
20260506211119 58 22 0.0 0.0 0.00 0.20 0.20 88 1009.4
20260506210104 59 22 0.0 0.0 0.00 0.20 0.20 88 1009.3
20260506205123 59 22 0.0 0.0 0.00 0.20 0.20 88 1009.3
20260506204102 59 22 0.0 0.0 0.00 0.20 0.20 88 1009.2
20260506203142 60 22 0.0 0.0 0.00 0.20 0.20 88 1009.2
20260506200137 60 23 0.0 0.0 0.00 0.20 0.20 88 1009.0
20260506194101 60 23 0.0 0.0 0.00 0.20 0.20 88 1008.8
20260506192120 60 23 0.0 0.0 0.00 0.20 0.20 88 1008.7
20260506191119 60 18 0.0 0.0 0.00 0.20 0.20 88 1008.6
20260506190108 61 16 0.0 0.0 0.00 0.20 0.20 88 1008.5
20260506183132 61 74 0.0 0.0 0.00 0.20 0.20 88 1008.2
20260506182141 61 74 0.0 0.0 0.00 0.20 0.20 88 1008.1
20260506181113 61 74 0.0 1.0 0.00 0.20 0.20 88 1008.0
20260506175143 62 76 0.0 5.0 0.00 0.20 0.20 87 1007.9
20260506174127 62 115 0.0 0.0 0.00 0.20 0.20 87 1007.8
20260506173131 62 115 0.0 0.0 0.00 0.20 0.20 87 1007.8
20260506172137 62 115 0.0 0.0 0.00 0.20 0.20 87 1007.6
20260506171116 62 115 0.0 4.0 0.00 0.20 0.20 86 1007.6
20260506170133 62 86 0.0 1.0 0.00 0.20 0.20 86 1007.6
20260506165104 62 91 0.0 0.0 0.00 0.20 0.20 85 1007.5
20260506163107 63 74 0.0 0.0 0.00 0.20 0.20 85 1007.5
20260506162113 62 58 0.0 2.0 0.00 0.20 0.20 86 1007.2
20260506160119 62 89 0.0 3.0 0.00 0.20 0.20 86 1007.5
20260506155115 62 91 0.0 1.0 0.00 0.20 0.20 86 1007.4
20260506154133 62 102 0.0 1.0 0.00 0.20 0.20 87 1007.4
20260506153109 62 74 0.0 0.0 0.00 0.20 0.20 87 1007.6
20260506152101 62 77 0.0 1.0 0.00 0.20 0.20 87 1007.3
20260506151121 62 59 0.0 4.0 0.00 0.20 0.20 87 1007.5
20260506150124 61 98 0.0 1.0 0.00 0.20 0.20 89 1007.5
20260506145103 61 89 0.0 3.0 0.00 0.20 0.20 89 1007.8
20260506144112 61 89 0.0 1.0 0.00 0.20 0.20 89 1007.7
20260506143102 61 87 0.0 6.0 0.00 0.21 0.20 89 1007.7
20260506142140 61 76 0.0 4.0 0.00 0.21 0.20 90 1007.8
20260506141119 60 82 0.0 4.0 0.00 0.23 0.20 91 1007.8
20260506140113 60 13 0.0 1.0 0.00 0.23 0.20 91 1008.0
20260506135145 60 77 0.0 4.0 0.01 0.23 0.20 91 1008.2
20260506134136 60 86 0.0 1.0 0.02 0.23 0.20 91 1008.2
20260506133140 60 98 0.0 4.0 0.03 0.23 0.20 91 1008.2
20260506132115 61 77 0.0 2.0 0.03 0.23 0.20 91 1008.2
20260506131142 60 0 0.0 5.0 0.03 0.23 0.20 91 1008.1
20260506130111 60 3 0.0 5.0 0.04 0.23 0.20 91 1008.0
20260506125101 60 93 0.0 0.0 0.05 0.22 0.19 91 1008.4
20260506124109 59 93 0.0 0.0 0.06 0.21 0.17 91 1008.5
20260506123145 59 93 0.0 0.0 0.05 0.20 0.17 91 1008.8
20260506122122 59 93 0.0 0.0 0.05 0.20 0.17 91 1008.7
20260506121133 59 93 0.0 1.0 0.05 0.20 0.17 91 1008.6
20260506120114 59 37 0.0 1.0 0.06 0.19 0.16 91 1008.6
20260506114136 59 18 0.0 0.0 0.04 0.15 0.12 90 1008.6
20260506113109 59 12 0.0 0.0 0.04 0.15 0.12 90 1008.7
20260506112142 59 12 0.0 0.0 0.04 0.15 0.12 90 1008.8
20260506111135 59 12 0.0 0.0 0.04 0.15 0.12 90 1008.8
20260506110140 59 13 0.0 0.0 0.02 0.13 0.10 90 1009.0
20260506105133 59 12 0.0 0.0 0.02 0.13 0.09 89 1009.1
20260506104110 59 12 0.0 0.0 0.00 0.11 0.08 89 1009.2
20260506103122 59 17 0.0 0.0 0.00 0.11 0.08 89 1009.1
20260506102136 59 17 0.0 0.0 0.00 0.11 0.08 89 1009.3
20260506101130 59 17 0.0 1.0 0.00 0.11 0.08 89 1009.3
20260506100119 59 10 0.0 1.0 0.00 0.11 0.08 89 1009.2
20260506095117 59 98 0.0 0.0 0.00 0.00 0.08 89 1009.3
20260506094141 59 98 0.0 0.0 0.00 0.00 0.08 89 1009.3
20260506092133 59 88 0.0 1.0 0.00 0.00 0.08 88 1009.3
20260506091113 59 76 0.0 0.0 0.00 0.00 0.08 88 1009.3
20260506085141 59 325 0.0 1.0 0.00 0.00 0.08 89 1009.2
20260506084127 59 323 0.0 1.0 0.00 0.00 0.08 90 1009.0
20260506083118 59 323 0.0 0.0 0.00 0.00 0.08 91 1009.0
20260506082112 58 323 0.0 0.0 0.00 0.00 0.08 92 1009.1
20260506080138 57 323 0.0 0.0 0.00 0.00 0.08 92 1008.8
20260506073124 57 309 0.0 0.0 0.00 0.00 0.08 93 1009.0
20260506071104 56 302 0.0 0.0 0.01 0.00 0.08 93 1009.0
20260506070117 56 302 0.0 0.0 0.02 0.00 0.08 93 1009.2